• In Belgien
  • Länderverzeichnis
  • Für 7 Tage
  • Wassertemperatur
  • Satellitenkarten
  • Wetterkarte
  • Widgets
  • user-avatar
    Anmelden

    Stündliche Wetter Fier

    Heute, 19 August, Samstag

    Zeit Temperatur Niederschläge Wind Luftdruck Luftfeuchtigkeit
    00:00 +27°C° 0 mm 2 m/S 760 mmHg 40%
    01:00 +27°C° 0 mm 2 m/S 760 mmHg 36%
    02:00 +27°C° 0 mm 2 m/S 760 mmHg 37%
    03:00 +26°C° 0 mm 2 m/S 760 mmHg 38%
    04:00 +26°C° 0 mm 2 m/S 760 mmHg 40%
    05:00 +27°C° 0 mm 1 m/S 760 mmHg 38%
    06:00 +29°C° 0 mm 1 m/S 760 mmHg 37%
    07:00 +31°C° 0 mm 1 m/S 760 mmHg 34%
    08:00 +33°C° 0 mm 1 m/S 760 mmHg 30%
    09:00 +35°C° 0 mm 1 m/S 760 mmHg 27%
    10:00 +37°C° 0 mm 1 m/S 760 mmHg 24%
    11:00 +38°C° 0 mm 2 m/S 760 mmHg 23%
    12:00 +39°C° 0 mm 3 m/S 760 mmHg 23%
    13:00 +39°C° 0 mm 3 m/S 759 mmHg 22%
    14:00 +38°C° 0 mm 3 m/S 759 mmHg 24%
    15:00 +37°C° 0 mm 3 m/S 759 mmHg 26%
    16:00 +37°C° 0 mm 3 m/S 759 mmHg 28%
    17:00 +35°C° 0 mm 2 m/S 759 mmHg 33%
    18:00 +31°C° 0 mm 2 m/S 759 mmHg 38%
    19:00 +29°C° 0 mm 1 m/S 759 mmHg 42%
    20:00 +28°C° 0 mm 1 m/S 759 mmHg 43%
    21:00 +28°C° 0 mm 1 m/S 759 mmHg 44%
    22:00 +27°C° 0 mm 1 m/S 760 mmHg 45%
    23:00 +27°C° 0 mm 1 m/S 759 mmHg 45%

    Morgen, 20 August, Sonntag

    Zeit Temperatur Niederschläge Wind Luftdruck Luftfeuchtigkeit
    00:00 +27°C° 0 mm 2 m/S 759 mmHg 46%
    01:00 +26°C° 0 mm 2 m/S 759 mmHg 46%
    02:00 +26°C° 0 mm 2 m/S 759 mmHg 46%
    03:00 +26°C° 0 mm 2 m/S 759 mmHg 46%
    04:00 +25°C° 0 mm 2 m/S 758 mmHg 47%
    05:00 +27°C° 0 mm 2 m/S 758 mmHg 43%
    06:00 +29°C° 0 mm 2 m/S 758 mmHg 40%
    07:00 +30°C° 0 mm 2 m/S 758 mmHg 36%
    08:00 +32°C° 0 mm 2 m/S 758 mmHg 31%
    09:00 +35°C° 0 mm 2 m/S 758 mmHg 25%
    10:00 +37°C° 0 mm 2 m/S 758 mmHg 20%
    11:00 +38°C° 0 mm 3 m/S 757 mmHg 19%
    12:00 +38°C° 0 mm 4 m/S 757 mmHg 18%
    13:00 +40°C° 0 mm 4 m/S 757 mmHg 18%
    14:00 +38°C° 0 mm 4 m/S 756 mmHg 20%
    15:00 +38°C° 0 mm 4 m/S 756 mmHg 22%
    16:00 +37°C° 0 mm 4 m/S 756 mmHg 24%
    17:00 +34°C° 0 mm 3 m/S 756 mmHg 30%
    18:00 +31°C° 0 mm 2 m/S 756 mmHg 37%
    19:00 +28°C° 0 mm 2 m/S 756 mmHg 43%
    20:00 +28°C° 0,1 mm 2 m/S 757 mmHg 45%
    21:00 +27°C° 0,1 mm 1 m/S 757 mmHg 47%
    22:00 +26°C° 0,1 mm 1 m/S 757 mmHg 49%
    23:00 +26°C° 0,5 mm 1 m/S 757 mmHg 51%

    übermorgen, 21 August, Montag

    Zeit Temperatur Niederschläge Wind Luftdruck Luftfeuchtigkeit
    00:00 +25°C° 0,5 mm 2 m/S 757 mmHg 53%
    01:00 +25°C° 0,5 mm 2 m/S 757 mmHg 55%
    02:00 +24°C° 0,8 mm 3 m/S 757 mmHg 59%
    03:00 +24°C° 0,8 mm 3 m/S 757 mmHg 64%
    04:00 +22°C° 0,8 mm 4 m/S 757 mmHg 68%
    05:00 +24°C° 0,1 mm 3 m/S 757 mmHg 67%
    06:00 +25°C° 0,1 mm 3 m/S 757 mmHg 66%
    07:00 +26°C° 0,1 mm 2 m/S 757 mmHg 65%
    08:00 +28°C° 0 mm 2 m/S 757 mmHg 56%
    09:00 +30°C° 0 mm 3 m/S 757 mmHg 48%
    10:00 +34°C° 0 mm 3 m/S 757 mmHg 39%
    11:00 +34°C° 0 mm 4 m/S 757 mmHg 37%
    12:00 +35°C° 0 mm 5 m/S 757 mmHg 36%
    13:00 +35°C° 0 mm 6 m/S 757 mmHg 34%
    14:00 +35°C° 0 mm 6 m/S 756 mmHg 35%
    15:00 +34°C° 0 mm 6 m/S 756 mmHg 37%
    16:00 +34°C° 0 mm 7 m/S 756 mmHg 38%
    17:00 +32°C° 0 mm 6 m/S 757 mmHg 45%
    18:00 +28°C° 0 mm 6 m/S 757 mmHg 51%
    19:00 +26°C° 0 mm 5 m/S 757 mmHg 58%
    20:00 +25°C° 0 mm 5 m/S 758 mmHg 61%
    21:00 +25°C° 0 mm 4 m/S 758 mmHg 64%
    22:00 +24°C° 0 mm 3 m/S 758 mmHg 67%
    23:00 +24°C° 0 mm 3 m/S 758 mmHg 66%

    22 August, Dienstag

    Zeit Temperatur Niederschläge Wind Luftdruck Luftfeuchtigkeit
    00:00 +22°C° 0 mm 3 m/S 759 mmHg 65%
    01:00 +22°C° 0 mm 3 m/S 759 mmHg 63%
    02:00 +21°C° 0 mm 3 m/S 759 mmHg 63%
    03:00 +21°C° 0 mm 4 m/S 759 mmHg 63%
    04:00 +20°C° 0 mm 4 m/S 759 mmHg 63%
    05:00 +22°C° 0 mm 4 m/S 759 mmHg 58%
    06:00 +23°C° 0 mm 4 m/S 759 mmHg 52%
    07:00 +25°C° 0 mm 4 m/S 760 mmHg 47%
    08:00 +27°C° 0 mm 4 m/S 760 mmHg 41%
    09:00 +29°C° 0 mm 4 m/S 760 mmHg 35%
    10:00 +32°C° 0 mm 4 m/S 760 mmHg 29%
    11:00 +33°C° 0 mm 5 m/S 759 mmHg 27%
    12:00 +34°C° 0 mm 5 m/S 759 mmHg 24%
    13:00 +35°C° 0 mm 6 m/S 759 mmHg 22%
    14:00 +35°C° 0 mm 6 m/S 759 mmHg 22%
    15:00 +34°C° 0 mm 6 m/S 759 mmHg 23%
    16:00 +34°C° 0 mm 7 m/S 758 mmHg 23%
    17:00 +30°C° 0 mm 6 m/S 759 mmHg 31%
    18:00 +27°C° 0 mm 5 m/S 759 mmHg 39%
    19:00 +25°C° 0 mm 4 m/S 759 mmHg 46%
    20:00 +23°C° 0 mm 4 m/S 759 mmHg 47%
    21:00 +22°C° 0 mm 4 m/S 760 mmHg 48%
    22:00 +22°C° 0 mm 3 m/S 760 mmHg 49%
    23:00 +22°C° 0 mm 3 m/S 760 mmHg 46%

    23 August, Mittwoch

    Zeit Temperatur Niederschläge Wind Luftdruck Luftfeuchtigkeit
    00:00 +21°C° 0 mm 3 m/S 760 mmHg 42%
    01:00 +21°C° 0 mm 3 m/S 760 mmHg 39%
    02:00 +21°C° 0 mm 3 m/S 760 mmHg 38%
    03:00 +21°C° 0 mm 3 m/S 760 mmHg 37%
    04:00 +20°C° 0 mm 2 m/S 760 mmHg 36%
    05:00 +23°C° 0 mm 2 m/S 761 mmHg 34%
    06:00 +25°C° 0 mm 2 m/S 761 mmHg 33%
    07:00 +26°C° 0 mm 2 m/S 761 mmHg 31%
    08:00 +29°C° 0 mm 2 m/S 761 mmHg 28%
    09:00 +31°C° 0 mm 1 m/S 761 mmHg 26%
    10:00 +33°C° 0 mm 1 m/S 761 mmHg 23%
    11:00 +35°C° 0 mm 2 m/S 761 mmHg 22%
    12:00 +36°C° 0 mm 3 m/S 761 mmHg 22%
    13:00 +36°C° 0 mm 4 m/S 761 mmHg 22%
    14:00 +35°C° 0 mm 4 m/S 760 mmHg 23%
    15:00 +35°C° 0 mm 4 m/S 760 mmHg 25%
    16:00 +34°C° 0 mm 4 m/S 760 mmHg 27%
    17:00 +32°C° 0 mm 4 m/S 761 mmHg 32%
    18:00 +28°C° 0 mm 3 m/S 761 mmHg 37%
    19:00 +26°C° 0 mm 3 m/S 761 mmHg 42%
    20:00 +25°C° 0 mm 2 m/S 761 mmHg 42%
    21:00 +24°C° 0 mm 2 m/S 761 mmHg 42%
    22:00 +24°C° 0 mm 2 m/S 762 mmHg 43%
    23:00 +24°C° 0 mm 2 m/S 762 mmHg 42%

    24 August, Donnerstag

    Zeit Temperatur Niederschläge Wind Luftdruck Luftfeuchtigkeit
    00:00 +23°C° 0 mm 2 m/S 762 mmHg 42%
    01:00 +23°C° 0 mm 2 m/S 762 mmHg 42%
    02:00 +23°C° 0 mm 2 m/S 762 mmHg 42%
    03:00 +23°C° 0 mm 2 m/S 762 mmHg 42%
    04:00 +21°C° 0 mm 2 m/S 762 mmHg 42%
    05:00 +24°C° 0 mm 2 m/S 762 mmHg 39%
    06:00 +26°C° 0 mm 2 m/S 762 mmHg 36%
    07:00 +28°C° 0 mm 2 m/S 762 mmHg 34%
    08:00 +30°C° 0 mm 2 m/S 762 mmHg 29%
    09:00 +34°C° 0 mm 2 m/S 762 mmHg 25%
    10:00 +36°C° 0 mm 2 m/S 762 mmHg 21%
    11:00 +37°C° 0 mm 3 m/S 762 mmHg 20%
    12:00 +38°C° 0 mm 4 m/S 762 mmHg 19%
    13:00 +38°C° 0 mm 4 m/S 762 mmHg 17%
    14:00 +39°C° 0 mm 5 m/S 761 mmHg 18%
    15:00 +39°C° 0 mm 5 m/S 761 mmHg 19%
    16:00 +37°C° 0 mm 5 m/S 761 mmHg 20%
    17:00 +34°C° 0 mm 4 m/S 761 mmHg 26%
    18:00 +30°C° 0 mm 3 m/S 762 mmHg 32%
    19:00 +27°C° 0 mm 2 m/S 762 mmHg 39%
    20:00 +27°C° 0 mm 2 m/S 762 mmHg 38%
    21:00 +26°C° 0 mm 2 m/S 762 mmHg 37%
    22:00 +26°C° 0 mm 2 m/S 763 mmHg 36%
    23:00 +26°C° 0 mm 2 m/S 763 mmHg 35%
    Mehr zeigen